Location: Squirrel Cove
(50.1074°N, 124.9139°W)
Time: 09:06:11
(UTC-07:00)

CHALLENGEONE - Visible Passes

Search period start: 25 July 2024 00:00
Search period end: 04 August 2024 00:00
Orbit: 470 x 488 km, 97.5° (Epoch: 25 July)

Date Brightness Start Highest point End Pass type
(mag) Time Alt. Az. Time Alt. Az. Time Alt. Az.
25 Jul ? 01:15:13 10° N 01:18:34 37° WNW 01:19:25 32° WSW visible
25 Jul ? 23:18:40 10° E 23:18:50 10° E 23:18:52 10° E visible
26 Jul ? 00:49:03 10° N 00:52:39 75° WNW 00:53:07 63° SW visible
27 Jul ? 00:23:04 10° NNE 00:26:36 53° E 00:26:45 53° ESE visible
27 Jul ? 01:57:25 10° NNW 01:59:33 15° WNW 02:01:00 12° W visible
27 Jul ? 23:57:17 10° NE 00:00:20 27° E 00:00:20 27° E visible
28 Jul ? 01:30:38 10° N 01:33:41 26° WNW 01:34:35 23° W visible
28 Jul ? 23:31:59 10° NE 23:33:53 15° E 23:33:53 15° E visible
29 Jul ? 01:04:10 10° N 01:07:40 50° WNW 01:08:07 46° W visible
30 Jul ? 00:37:54 10° NNE 00:41:31 81° ESE 00:41:36 80° SE visible
30 Jul ? 02:13:12 10° NW 02:14:17 11° WNW 02:15:21 10° WNW visible
31 Jul ? 00:11:49 10° NNE 00:15:02 38° E 00:15:02 38° E visible
31 Jul ? 01:45:41 10° NNW 01:48:18 19° WNW 01:49:15 17° W visible
31 Jul ? 23:46:01 10° NE 23:48:24 20° E 23:48:24 20° E visible
01 Aug ? 01:18:54 10° N 01:22:12 34° WNW 01:22:38 33° W visible
01 Aug ? 23:21:13 10° ENE 23:21:44 11° E 23:21:44 11° E visible
02 Aug ? 00:52:21 10° N 00:55:57 69° WNW 00:55:58 69° WNW visible
03 Aug ? 00:25:59 10° NNE 00:29:14 54° ENE 00:29:14 54° ENE visible
03 Aug ? 02:00:26 10° NNW 02:02:26 14° WNW 02:03:27 13° W visible
